Regional Weather Roundup
Issued by NWS

Home | Current Version | Previous Version | Graphics & Text | Print | Product List | Glossary On
Versions: 1 2 3 4 5 6 7 8 9 10 11 12 13 14 15 16 17 18 19 20 21 22 23 24 25 26 27 28 29 30 31 32 33 34 35 36 37 38 39 40 41 42 43 44 45 46 47 48 49 50
000
ASUS43 KLMK 301402
RWRKY
KENTUCKY REGIONAL WEATHER ROUNDUP
NATIONAL WEATHER SERVICE LOUISVILLE KY
1000 AM EDT MON MAY 30 2016

NOTE "FAIR" INDICATES FEW OR NO CLOUDS BELOW 12,000 FEET
WITH NO SIGNIFICANT WEATHER AND/OR OBSTRUCTIONS TO VISIBILITY.

KYZ001>023-026-027-061>063-070>075-301500-
WESTERN AND SOUTH CENTRAL KENTUCKY

CITY           SKY/WX    TMP DP  RH WIND       PRES   REMARKS
PADUCAH        SUNNY     78  62  57 NE3       30.09R
HENDERSON      SUNNY     75  61  60 CALM      30.08R
OWENSBORO      SUNNY     79  64  59 N3        30.09R
HOPKINSVILLE   NOT AVBL
BOWLING GREEN  SUNNY     79  64  60 VRB3      30.07R
GLASGOW        NOT AVBL
$$

KYZ024-025-028>034-038-045-046-053-301500-
NORTH CENTRAL KENTUCKY

CITY           SKY/WX    TMP DP  RH WIND       PRES   REMARKS
LOUISVILLE/SDF MOSUNNY   79  60  52 NW3       30.06R
LOUISVILLE/LOU SUNNY     77  61  57 VRB5      30.06S
FORT KNOX      SUNNY     77  61  58 N7        30.06R
$$

KYZ035>037-039>044-047>052-055>060-089>105-301500-
NORTHEAST KENTUCKY

CITY           SKY/WX    TMP DP  RH WIND       PRES   REMARKS
LEXINGTON      SUNNY     76  66  71 CALM      30.07R
COVINGTON      PTSUNNY   77  63  61 N5        30.06S
FRANKFORT      SUNNY     76  65  68 NW3       30.05S
$$

KYZ054-064>069-076>088-106>120-301500-
SOUTHEAST KENTUCKY

CITY           SKY/WX    TMP DP  RH WIND       PRES   REMARKS
JACKSON        SUNNY     74  63  68 VRB3      30.07S
LONDON         SUNNY     74  65  73 W6        30.07S
SOMERSET       NOT AVBL
MIDDLESBORO    SUNNY     67  64  88 CALM      30.09S
MONTICELLO     SUNNY     76  66  71 VRB7      30.09S
$$





USA.gov is the U.S. government's official web portal to all federal, state and local government web resources and services.